Location: Vancouver
(49.2500°N, 123.1333°W)
Time: 17:13:49
(UTC-08:00)

Daily predictions for brighter satellites

Satellite Brightness Start Highest point End
(mag) Time Altitude Azimuth Time Altitude Azimuth Time Altitude Azimuth
CSL-04 Rocket 3.7 16:53:50 10° SSE 16:59:01 58° ENE 17:04:15 10° N
CENTAUR R/B 3.6 16:55:45 10° SSE 17:00:33 25° ESE 17:05:50 10° ENE
Cosmos 1825 2.3 16:57:35 10° N 17:01:24 85° W 17:05:11 10° S
COSMOS 2406 3.5 16:56:28 10° NNW 17:02:06 49° NE 17:07:38 10° SE
IDEFIX/ARIANE 42P 3.3 16:58:09 10° S 17:03:19 60° W 17:08:30 10° NNW
Cosmos 1763 Rocket 4.5 17:00:19 10° N 17:04:42 26° NE 17:09:02 10° ESE
Cosmos 1869 Rocket 3.6 17:00:32 10° N 17:05:03 88° E 17:09:32 10° S
Cosmos 1340 4.0 17:02:25 10° SE 17:05:12 20° E 17:08:00 10° NE
Cosmos 1346 Rocket 2.7 17:03:06 10° S 17:06:58 75° E 17:10:53 10° NNE
USA 161 0.4 17:06:24 10° N 17:08:10 74° WNW 17:10:00 10° SSW
Cosmos 220 Rocket 4.1 17:06:52 10° SSW 17:11:17 73° ESE 17:15:44 10° NNE
TSX-5 3.4 17:11:59 10° NNW 17:15:12 65° ENE 17:18:52 10° SE
Cosmos 2208 Rocket 4.0 17:11:10 10° NNW 17:16:21 70° ENE 17:21:35 10° SSE
Cosmos 2016 Rocket 4.1 17:10:56 10° S 17:17:06 58° E 17:23:15 10° NNE
COSMO-SKYMED 1 4.1 17:15:57 10° NE 17:18:52 17° E 17:21:47 10° SE
Cosmos 1850 Rocket 4.2 17:15:49 10° S 17:20:49 50° ESE 17:25:50 10° NNE
Cosmos 676 Rocket 4.4 17:18:03 10° SSW 17:23:20 68° WNW 17:28:37 10° NNE
ERS-2 2.8 17:21:26 10° SE 17:24:45 32° ENE 17:28:05 10° N
Cosmos 1844 Rocket 3.3 17:19:48 10° S 17:24:56 37° ESE 17:30:04 10° NE
Ariane Rocket 3.0 17:20:07 10° SSE 17:25:13 84° ENE 17:30:20 10° NNW
Cosmos 1862 3.3 17:21:57 10° N 17:25:59 84° E 17:30:00 10° S
METEOR-M 4.5 17:21:57 10° SE 17:26:56 42° ENE 17:31:56 10° N
YAOGAN 1 2.9 17:22:53 10° SE 17:26:58 43° ENE 17:31:06 10° N
Meteor 2-10 Rocket 3.6 17:24:21 10° S 17:29:25 61° E 17:34:45 10° NNE
SPOT 3 Rocket 4.1 17:26:08 10° SE 17:30:48 34° ENE 17:35:30 10° N
USA 238 DEB 4.3 17:26:34 10° WSW 17:33:22 56° NW 17:40:18 10° NE
USA 238 4.3 17:26:40 10° WSW 17:33:29 56° NW 17:40:25 10° NE
Cosmos 1461 3.3 17:29:03 10° NW 17:33:41 82° SW 17:38:25 10° SSE
Cosmos 1741 Rocket 4.1 17:28:39 10° S 17:33:54 63° ESE 17:39:10 10° NNE
Cosmos 371 Rocket 3.3 17:29:12 10° NNW 17:34:03 87° ENE 17:38:51 10° SSE
Cosmos 841 Rocket 4.2 17:31:03 10° N 17:35:51 33° NE 17:40:35 10° ESE
Cosmos 1570 Rocket 4.3 17:31:53 10° NNW 17:37:15 75° WSW 17:42:35 10° SSE
Cosmos 1707 Rocket 3.7 17:34:02 10° SSW 17:38:30 79° W 17:43:00 10° N
CSL-04 Debris 4.4 17:33:21 10° SSE 17:38:47 77° WSW 17:44:14 10° NNW
BREEZE-M DEB (TANK) 1.2 17:37:05 10° W 17:39:05 86° N 17:41:01 19° E
Cosmos 2173 Rocket 4.2 17:33:17 10° SSW 17:39:21 76° W 17:45:32 10° N
Cosmos 1484 Rocket 2.9 17:36:04 10° S 17:39:53 79° WSW 17:43:49 10° NNW
DNEPR-1 R/B 3.6 17:35:49 10° SSW 17:40:07 58° SE 17:43:26 15° NE
AQUARIUS 4.3 17:35:53 10° SSE 17:40:23 83° WSW 17:44:56 10° NNW
ATLAS 3B R/B 3.5 17:34:00 10° WSW 17:41:00 49° NW 17:47:43 10° NE
Cosmos 1844 4.3 17:36:04 10° S 17:41:20 39° ESE 17:46:20 12° NE
USA 116 4.3 17:36:39 10° NNE 17:41:26 49° E 17:45:40 10° S
Cosmos 304 Rocket 4.1 17:41:27 10° NNW 17:46:04 44° ENE 17:50:39 10° SE
Cosmos 1833 Rocket 3.6 17:41:52 10° NNW 17:46:38 27° NE 17:49:37 18° E
Cosmos 2278 Rocket 3.3 17:44:56 10° SSE 17:49:17 23° ESE 17:51:19 19° ENE
CZ-4C R/B 3.6 17:43:40 10° NW 17:49:23 30° NNE 17:53:36 18° ENE
Cosmos 1346 2.2 17:47:36 10° S 17:49:53 84° E 17:51:21 20° NNE
Meteor 2-12 Rocket 4.4 17:45:07 10° S 17:51:07 63° E 17:57:07 10° NNE
CZ-4 R/B 4.4 17:47:06 10° SSE 17:51:13 68° ENE 17:55:23 10° N
EO 1 Del DPAF 4.0 17:50:11 17° NE 17:52:29 32° E 17:55:56 10° SSE
USA 234 3.7 17:49:45 17° ENE 17:54:34 45° SE 18:00:46 10° SSW
FENGYUN 3A 3.9 17:49:55 10° SE 17:55:02 45° ENE 18:00:10 10° N
Meteor 1-25 Rocket 4.4 17:50:54 10° N 17:56:36 51° ENE 18:02:16 10° SSE
Meteor 1-28 Rocket 3.0 17:53:34 10° NNE 17:57:19 76° ESE 18:01:01 10° S
Cosmos 2263 Rocket 3.5 17:53:57 10° WSW 17:59:09 37° NW 18:04:23 10° NNE
MTI 3.9 17:59:45 24° NE 18:01:25 48° E 18:04:32 10° S
Cosmos 2242 Rocket 3.6 17:56:53 10° S 18:01:27 81° E 18:06:01 10° NNE
CZ-2C R/B 3.5 17:57:47 10° NNE 18:02:15 77° ESE 18:06:44 10° S
Sich 1 Rocket 3.9 17:59:39 10° N 18:03:51 41° ENE 18:08:02 10° SE
Landsat 4 3.6 18:01:43 10° NNE 18:05:30 71° ESE 18:09:15 10° S
SKYMED 2 3.7 18:03:10 11° NNE 18:07:18 49° E 18:11:30 10° S
Cosmos 2233 Rocket 4.0 18:01:41 10° S 18:07:50 63° E 18:14:00 10° NNE
Aureole 3 4.4 18:04:01 10° NNW 18:07:56 54° W 18:12:51 10° S
Meteor 1-20 Rocket 4.2 18:03:14 10° N 18:08:48 56° ENE 18:14:13 10° SSE
NOSS 3-2 (C) 3.8 18:03:40 10° SW 18:09:45 66° NW 18:15:29 15° NE
Cosmos 1908 Rocket 3.5 18:05:58 10° N 18:10:17 56° ENE 18:14:33 10° SSE
COSMOS 2455 3.1 18:06:08 10° S 18:11:50 46° ESE 18:15:04 24° NE
BREEZE-M R/B 2.7 18:09:46 10° W 18:12:21 58° SSW 18:14:05 27° SE
Cosmos 44 4.2 18:08:31 10° NNW 18:12:22 26° NE 18:12:53 26° NE
Cosmos 1733 Rocket 3.7 18:12:08 10° NNW 18:16:28 58° W 18:20:49 10° S
CZ-4 R/B 2.8 18:14:56 10° SSW 18:18:36 39° W 18:22:16 10° NNW
ALOS 2.1 18:16:30 10° SSE 18:21:09 71° ENE 18:25:49 10° N
NOSS 3-2 (A) 4.3 18:15:58 10° WSW 18:21:56 49° NW 18:27:16 16° NE
Cosmos 1633 3.8 18:18:54 10° N 18:20:48 26° NNE 18:20:48 26° NNE
Meteor 1-14 Rocket 4.2 18:18:03 10° NNW 18:23:51 89° W 18:29:28 10° S
Cosmos 2082 Rocket 2.5 18:18:51 10° NNW 18:24:20 44° NE 18:26:12 33° E
Cosmos 1862 Rocket 3.7 18:23:15 10° SSW 18:27:39 73° W 18:32:08 10° N
ERBS 2.6 18:24:27 10° WNW 18:27:49 65° SW 18:28:39 45° SSE
GENESIS II 4.4 18:24:10 10° NW 18:28:06 69° SW 18:30:27 22° SSE
Lacrosse 5 2.3 18:29:51 10° WSW 18:34:51 56° NNW 18:36:49 34° NE
SL-23 DEB 4.4 18:31:39 10° W 18:35:31 68° N 18:37:12 43° ENE
Cosmos 1340 4.3 18:37:11 10° SW 18:40:39 35° WNW 18:44:10 10° N
SL-27 R/B 4.0 18:38:26 10° NNW 18:39:56 24° NNW 18:39:56 24° NNW
Cosmos 1437 3.9 18:42:31 10° SSW 18:45:33 41° WNW 18:46:21 34° NW
Meteor 1-11 Rocket 4.1 18:40:16 10° N 18:45:49 44° ENE 18:45:49 44° ENE
Cosmos 1763 Rocket 4.0 18:41:46 10° NNW 18:46:55 58° WSW 18:51:59 10° S
CENTAUR R/B 2.6 18:44:08 10° SW 18:50:21 81° NW 18:54:07 30° NE
Cosmos 1782 Rocket 3.4 18:49:47 10° N 18:54:10 88° W 18:55:17 50° S
Cosmos 1072 Rocket 4.4 18:48:17 10° S 18:54:25 68° E 19:00:41 10° NNE
COSMO-SKYMED 1 3.1 18:51:48 14° N 18:55:24 57° WNW 18:59:39 10° SSW
DMSP B5D1-3 4.4 18:54:11 23° NNE 18:57:31 87° ESE 19:02:40 10° SSW
Cosmos 2034 Rocket 4.1 18:54:06 10° SSE 19:06:41 - NNE 18:59:44 51° ESE
Nadezhda 4 Rocket 4.1 18:57:18 10° N 19:02:40 52° NE 19:02:40 52° NE
Cosmos 44 Rocket 4.0 18:59:24 10° NNW 19:03:00 41° N 19:03:00 41° N
Cosmos 836 Rocket 4.3 19:01:46 10° NNW 19:07:02 85° ENE 19:07:26 77° SE
Cosmos 1844 Rocket 3.7 19:03:24 10° SW 19:08:46 43° NW 19:12:16 20° N
Cosmos 1486 Rocket 3.9 19:09:54 10° SSW 19:15:07 86° WNW 19:15:12 85° NW
Okean 2 Rocket 4.5 19:17:16 10° NNW 19:19:40 31° NNW 19:19:40 31° NNW
Cosmos 1703 Rocket 4.5 19:22:06 10° SSW 19:26:26 48° WNW 19:26:31 48° WNW
Cosmos 540 Rocket 3.7 19:22:38 10° NNW 19:27:46 65° WSW 19:27:50 65° WSW
Cosmos 1833 Rocket 2.8 19:25:28 10° NNW 19:31:03 68° WSW 19:31:22 66° SW
Cosmos 1464 Rocket 4.0 19:25:44 10° SSW 19:31:50 74° W 19:38:01 10° N
Cosmos 2278 Rocket 2.4 19:27:13 10° SW 19:32:51 67° WNW 19:33:13 65° NW
ATLAS 3B R/B 4.1 19:27:37 10° WNW 19:33:21 25° NNW 19:35:13 23° NNE
USA 234 3.2 19:37:07 67° NNE 19:37:51 74° NNW 19:44:22 10° WSW
CZ-4C R/B 2.8 19:32:12 10° NW 19:38:48 69° NNE 19:38:48 69° NNE
COSMOS 2455 3.7 19:52:09 10° WSW 19:57:51 43° NW 19:58:15 42° NNW
Cosmos 2082 Rocket 3.5 20:03:09 10° NW 20:08:07 37° W 20:08:07 37° W
Lacrosse 5 4.1 20:13:59 10° WNW 20:16:01 21° NW 20:16:01 21° NW
CENTAUR R/B 4.1 20:36:13 10° W 20:41:19 32° NNW 20:41:19 32° NNW
